RH
10 9 10 10 13 14 14 12 10 12 12 10 12 10 8 10 11 10 12 12 11 18 24 20 18 21 22 23 25 28 31 31 30 31 32 32 29 29 30 32 37 39 39 35 31 32 34 34 36 37 37 35 32 30 29 30 30 29 27 25 24 24 25 25 26 26 25 25 25 23 22 20 18 17 15 14 15 15 15 15 20 29 36 39 42 43 44 44 45 45 44 47 51 52 52 53 53
8 8 8 10 12 12 13 11 10 14 12 9 10 9 9 12 12 11 14 13 13 22 26 21 20 23 22 22 23 24 29 31 29 29 30 29 27 29 33 35 38 40 38 33 30 32 33 35 36 38 39 37 33 29 28 30 29 29 28 26 25 26 26 27 27 27 27 25 25 24 22 21 19 18 16 15 15 15 15 16 22 30 35 39 43 44 45 46 46 46 46 46 47 48 49 49 49
6 6 7 11 11 11 12 11 11 14 11 8 9 10 10 11 11 12 14 12 14 23 24 22 21 21 21 21 21 23 27 29 28 29 30 28 28 32 35 37 39 39 36 32 30 32 34 36 37 39 40 39 35 30 28 29 30 30 29 28 27 27 28 28 29 28 28 26 25 25 23 22 21 20 18 15 15 15 15 15 21 30 33 37 43 47 47 47 47 47 47 47 46 47 48 49 50
5 5 8 11 11 11 13 14 16 15 11 10 9 11 12 12 12 12 12 11 16 23 22 22 24 22 23 25 25 25 28 28 28 29 29 30 32 35 35 37 38 38 36 32 31 32 35 37 39 41 42 41 36 30 27 28 29 30 31 30 29 29 29 29 30 30 29 27 26 26 25 23 22 21 19 16 15 15 16 17 20 28 32 36 43 47 49 47 46 46 46 46 45 44 45 47 49
5 6 9 11 11 11 13 15 18 15 10 11 10 11 13 13 13 11 11 10 15 20 20 22 26 26 25 27 26 26 29 29 29 28 29 33 36 37 36 36 37 38 36 33 32 33 35 38 42 44 45 44 39 32 28 29 30 31 32 32 31 30 30 31 31 30 29 28 27 27 27 25 23 22 20 18 16 16 16 18 21 26 29 32 38 45 47 47 45 45 44 43 42 41 42 44 44
5 7 10 12 11 11 13 15 16 14 9 10 11 12 14 14 13 12 11 11 13 15 16 21 24 25 27 29 29 29 32 30 29 30 31 34 37 37 36 36 37 37 36 35 35 34 37 40 44 47 48 47 43 35 30 30 31 31 33 33 32 31 31 31 31 31 30 30 29 29 28 26 24 22 22 19 17 16 17 19 23 27 28 29 35 42 46 46 46 45 44 42 40 39 39 39 37
6 10 12 12 11 11 16 18 17 15 12 12 13 13 13 13 13 12 12 11 13 17 18 22 22 23 28 30 29 31 30 28 29 29 30 33 36 36 36 37 38 39 37 37 38 37 38 41 45 49 51 50 46 39 33 32 32 33 34 36 34 32 32 32 32 32 31 31 30 29 28 27 25 23 23 21 18 17 17 21 24 28 31 32 37 43 47 47 47 46 44 42 39 37 37 37 34
8 11 12 13 14 14 17 19 16 15 14 13 13 13 13 14 14 13 13 11 12 19 22 23 22 23 29 30 30 32 29 28 28 27 28 31 35 36 36 38 40 41 40 40 41 41 41 44 47 51 53 52 49 43 37 34 33 35 37 38 38 36 34 33 32 33 33 32 31 30 29 28 25 24 24 23 20 18 19 22 24 28 33 36 40 45 48 48 47 47 45 43 40 39 39 38 36
9 11 11 13 14 15 17 16 13 13 14 13 13 13 13 13 14 13 14 11 11 17 22 23 21 22 29 32 33 33 31 30 28 27 29 30 33 35 35 37 41 42 41 41 43 44 44 47 50 53 54 53 51 46 40 37 36 39 40 41 42 41 39 37 35 34 34 33 33 32 30 28 26 25 25 24 22 19 20 23 25 30 34 38 42 46 48 48 48 48 46 43 40 40 42 42 43
11 12 12 13 14 14 15 14 12 13 13 13 12 12 13 13 13 13 12 12 13 19 24 23 22 26 32 35 35 34 32 31 29 29 31 32 34 35 36 38 42 44 44 42 43 45 46 48 50 52 53 53 53 49 44 41 41 42 43 44 45 45 44 42 40 38 36 34 34 33 30 27 25 26 26 26 24 20 21 24 26 31 35 37 41 46 49 49 49 48 47 43 41 43 45 47 48
13 12 11 15 16 15 14 13 14 14 14 14 13 13 13 13 13 13 12 15 19 24 25 24 26 31 34 35 36 34 33 32 31 31 32 34 36 38 38 39 41 44 47 47 46 47 48 49 50 51 52 54 55 53 47 44 44 44 44 46 48 48 47 47 45 43 39 37 35 32 30 26 25 27 27 28 27 23 23 26 27 31 35 36 39 45 49 49 49 48 48 45 43 45 47 50 50
13 14 15 18 18 16 15 15 15 15 15 14 14 13 12 12 13 12 15 21 24 26 24 24 27 30 35 37 36 36 34 34 35 34 35 37 38 38 38 39 43 47 51 52 51 50 49 49 50 52 54 55 56 55 50 47 46 45 45 48 49 49 49 50 48 45 43 40 36 32 28 26 25 28 28 30 31 25 26 28 28 32 34 35 37 43 49 50 49 48 47 46 46 47 48 50 51
14 16 16 17 18 17 15 15 15 17 16 14 14 12 11 12 11 12 18 23 24 26 25 24 25 29 36 38 36 37 37 37 37 36 38 39 38 39 38 41 47 51 52 52 53 53 52 53 53 54 55 57 58 57 54 49 46 45 47 50 51 51 52 50 48 45 44 42 38 34 29 27 27 29 31 36 35 27 27 31 31 32 34 35 34 40 48 50 48 48 47 47 48 49 48 49 51
14 14 14 15 18 16 13 14 16 17 15 15 13 12 11 11 12 14 20 25 26 27 26 25 26 28 37 41 37 37 40 40 38 38 39 40 40 39 41 44 49 52 50 49 52 55 56 56 56 57 58 59 60 60 57 53 50 49 50 51 52 54 52 49 47 46 44 42 40 37 34 31 31 32 36 42 38 30 30 33 34 33 34 35 33 37 46 50 48 47 47 48 50 50 48 49 51
14 13 15 16 17 15 14 16 17 16 15 14 13 12 12 12 15 18 19 24 28 28 27 28 27 27 36 42 36 35 41 42 39 39 40 41 41 41 43 46 49 52 53 51 50 53 57 58 58 58 59 62 63 61 60 58 57 55 53 53 55 54 51 49 48 45 44 43 41 40 38 37 37 36 42 47 40 34 33 34 36 36 35 35 34 35 43 50 49 46 47 49 51 49 48 49 50
14 13 16 16 16 15 15 17 16 15 15 14 13 13 13 13 17 18 16 19 27 28 27 29 29 30 34 34 29 30 38 39 38 39 41 43 44 44 46 49 52 54 56 54 50 51 54 56 58 58 59 62 64 63 63 63 63 61 59 56 54 52 50 50 48 44 42 42 42 41 42 44 43 42 48 51 43 37 36 38 39 39 37 35 35 36 42 51 51 47 46 49 51 49 48 49 51
14 14 17 16 15 15 17 18 15 15 15 14 14 13 13 14 20 22 20 20 26 28 26 29 32 31 30 28 26 29 35 37 38 39 40 43 46 47 49 52 54 54 56 55 50 48 51 53 56 59 61 63 65 66 66 66 66 65 63 58 54 52 50 49 46 43 42 43 44 45 48 50 47 47 52 54 47 40 41 42 41 42 40 36 35 37 43 51 53 48 45 48 50 48 48 49 51
14 16 18 16 14 16 18 18 16 15 15 14 14 14 13 13 20 24 24 24 26 28 28 29 29 28 27 27 27 29 36 38 38 37 37 41 46 49 50 52 54 56 58 56 53 49 49 54 58 61 63 66 68 69 69 68 68 67 62 56 53 51 49 48 44 42 42 44 46 47 51 54 52 51 52 54 49 43 45 46 44 43 42 39 36 38 43 50 54 50 45 47 48 48 48 48 50
15 16 17 15 15 17 18 18 16 15 14 15 14 14 13 12 16 20 25 27 26 31 33 31 26 26 27 27 29 33 37 37 36 36 37 39 43 48 50 50 54 57 57 57 59 58 54 56 60 63 65 69 73 73 72 70 68 65 59 55 53 51 49 47 42 42 44 46 48 51 53 55 57 57 55 54 49 45 49 49 47 45 44 42 38 40 45 51 56 53 48 46 46 47 48 49 50
15 14 14 14 16 19 18 17 16 15 14 15 15 14 13 13 12 15 25 27 27 32 34 32 29 27 27 28 34 36 37 36 35 35 37 37 39 48 52 52 54 55 55 57 61 62 59 59 60 63 66 68 70 71 70 67 65 63 59 55 54 53 50 47 44 45 47 49 51 55 57 57 59 62 63 57 49 49 53 52 49 47 46 44 41 42 47 53 58 58 53 47 45 46 47 50 51
15 14 13 14 18 20 18 17 16 15 15 14 15 14 13 13 13 16 24 26 27 29 27 25 25 25 26 33 38 37 36 36 35 35 36 35 38 48 55 55 56 56 56 57 57 56 54 57 59 60 63 64 64 63 62 60 60 60 59 57 56 55 52 48 47 48 49 52 56 60 62 61 62 67 66 57 50 54 57 53 51 49 48 46 42 45 50 56 60 61 57 50 46 47 48 52 52
14 13 13 15 19 20 18 17 16 15 15 15 15 15 14 13 15 19 22 25 24 21 20 20 21 21 24 31 36 35 36 36 36 36 35 36 37 45 52 51 50 53 55 55 55 55 50 51 57 58 57 57 56 55 54 54 57 58 59 59 58 58 54 51 51 51 53 56 60 64 65 66 67 70 66 54 50 56 60 56 54 52 50 48 45 48 54 60 63 61 57 52 48 47 50 54 54
14 13 14 17 19 19 18 17 16 16 15 15 15 14 14 14 16 19 18 18 15 13 15 18 20 21 23 29 32 32 34 35 38 38 37 38 39 46 50 46 45 51 54 55 56 58 52 49 57 62 59 56 54 53 53 55 57 59 61 63 63 62 57 55 54 54 56 58 62 65 66 69 72 71 64 55 52 56 59 59 58 57 54 52 49 51 57 61 63 60 56 53 50 49 52 54 54
14 14 15 18 19 19 18 17 16 16 15 15 14 14 14 14 14 16 14 12 12 13 13 16 21 23 26 30 30 29 30 35 40 40 40 41 41 46 49 47 46 48 51 53 55 59 55 48 54 64 64 61 60 59 57 57 58 59 62 64 65 66 62 57 56 57 60 61 63 64 66 73 76 70 62 58 57 55 58 63 63 61 59 56 54 54 59 62 60 57 55 54 51 51 52 53 54
13 14 14 17 20 19 18 18 16 16 15 15 15 14 14 13 13 12 12 12 13 14 14 18 22 25 29 30 29 29 30 36 40 40 43 44 43 45 47 46 46 45 49 52 55 56 53 49 53 61 64 63 63 62 60 59 60 61 63 64 64 66 64 59 58 60 63 64 65 65 67 75 75 69 62 59 58 55 58 65 67 65 63 61 59 57 58 59 58 56 55 55 53 51 51 51 52
13 11 14 18 20 19 18 17 16 15 15 15 14 14 13 12 12 11 12 14 15 15 16 20 23 26 30 29 28 27 28 34 38 40 44 45 45 47 48 48 48 48 50 54 56 55 55 59 60 63 65 64 63 62 61 61 63 62 61 62 64 66 65 61 63 65 65 64 65 66 70 76 73 69 66 60 58 55 57 65 67 66 67 66 65 63 59 54 54 56 56 55 54 52 51 50 51
13 13 16 19 20 19 18 16 16 16 15 14 14 14 13 12 11 11 12 14 14 14 17 22 24 27 28 26 26 26 27 31 34 38 42 44 46 48 49 50 52 53 53 55 57 56 59 65 66 67 69 66 63 62 64 66 65 60 58 60 63 67 66 62 65 69 67 65 66 70 75 76 72 70 70 65 61 58 60 66 66 66 69 70 68 66 62 54 50 53 56 56 54 53 51 51 52
13 16 19 20 18 17 18 16 16 16 14 14 14 13 13 11 11 11 11 14 15 14 18 22 24 26 25 24 25 25 28 30 32 35 36 38 40 46 52 55 55 54 53 54 55 57 60 65 67 68 69 66 63 64 67 68 65 61 60 60 63 67 67 64 66 69 69 68 72 76 79 76 73 73 74 69 65 64 65 68 67 65 67 71 70 68 65 59 53 52 54 55 53 53 53 53 56
15 17 20 21 19 17 17 16 15 15 15 14 14 13 12 11 10 9 10 15 18 16 17 22 23 24 23 23 24 25 28 29 31 33 34 34 35 42 52 59 60 55 52 52 53 57 62 67 68 64 62 60 58 59 62 62 60 59 62 64 67 67 65 66 68 71 72 71 74 77 79 78 76 77 77 72 69 68 68 69 69 68 67 68 68 68 67 63 58 55 54 54 54 55 56 57 58
16 17 19 20 20 18 17 16 16 15 15 13 12 13 13 12 11 9 10 14 19 18 18 22 24 24 24 24 24 25 27 28 30 32 34 35 35 39 42 48 54 53 53 52 55 62 64 65 63 58 56 54 53 55 56 56 55 55 60 65 69 69 67 67 69 72 73 71 70 74 78 80 79 79 77 73 72 71 70 71 71 72 73 70 67 66 66 62 59 57 56 56 56 58 58 58 59
18 17 20 21 19 18 17 16 16 15 14 12 11 13 13 12 11 9 9 12 16 18 19 23 26 26 24 24 24 24 25 28 31 32 33 35 36 36 35 38 43 49 53 53 58 65 64 60 58 56 54 51 50 52 53 55 56 57 61 65 69 72 72 71 72 73 75 74 71 73 78 80 80 80 76 74 74 72 71 71 71 73 75 74 71 70 67 62 59 59 58 58 59 59 59 60 61
21 18 21 23 19 18 18 16 16 14 13 13 11 13 14 12 11 10 9 12 16 17 19 24 29 28 25 24 24 23 25 29 32 33 33 35 38 37 36 37 38 44 50 51 53 58 59 58 54 51 49 46 45 47 48 49 53 56 60 63 66 71 76 76 74 74 77 76 75 78 80 81 80 78 75 75 75 74 72 72 71 72 73 73 72 71 67 62 59 60 59 59 60 60 60 61 62
24 21 22 22 17 17 16 14 15 14 13 13 12 13 14 13 11 11 11 15 20 20 21 28 32 29 27 26 24 23 27 32 33 34 33 35 38 37 37 37 36 39 42 43 46 50 53 55 52 48 45 44 44 44 45 47 50 54 59 64 67 72 78 78 76 75 77 77 77 80 81 79 78 75 74 75 76 76 75 73 72 73 73 73 72 71 65 59 58 59 59 59 60 61 61 62 63
23 22 22 22 18 16 15 14 14 13 13 13 13 13 14 13 12 11 13 18 25 26 25 31 34 32 30 27 24 26 31 34 35 36 34 34 37 38 38 37 35 37 37 37 40 44 48 50 48 45 42 42 44 45 47 48 48 53 61 67 72 76 79 79 79 79 79 78 78 79 81 80 77 76 76 77 78 78 76 74 73 73 73 74 76 74 67 61 58 59 59 61 62 64 65 66 67
21 21 20 19 18 16 15 15 15 14 14 14 13 13 13 14 13 12 15 18 24 28 28 29 31 33 34 31 29 31 36 37 38 38 36 34 36 38 38 38 37 37 37 36 37 40 43 44 43 40 38 39 42 45 49 50 47 50 60 70 76 78 79 79 79 80 78 78 77 78 84 85 82 80 79 79 79 79 77 74 73 72 73 75 79 78 73 68 64 63 65 66 67 69 69 70 69
21 21 20 18 17 16 16 15 15 14 14 14 14 14 14 15 15 15 17 20 22 26 26 25 28 31 33 33 34 36 38 39 40 39 39 36 37 38 38 39 39 38 38 36 37 38 37 38 38 35 34 37 39 42 47 50 50 54 61 71 78 79 78 77 77 78 79 79 78 78 82 85 85 84 82 79 79 79 78 76 74 73 73 74 78 79 75 73 71 70 71 71 72 73 72 70 69
19 19 19 18 16 16 16 15 16 15 14 15 15 15 16 17 20 20 23 28 30 31 30 27 28 31 32 33 35 38 39 41 41 40 40 38 36 38 39 40 40 39 39 39 38 37 34 33 32 30 30 33 36 41 47 50 53 61 66 71 79 81 78 76 75 78 79 77 77 78 81 83 84 84 82 80 79 80 80 77 76 76 75 75 76 77 75 75 76 76 75 74 74 74 72 69 67
18 18 18 18 17 17 17 16 18 16 15 18 16 16 21 22 24 27 30 35 37 37 37 34 31 30 31 33 36 38 40 40 40 39 38 37 36 38 39 40 40 40 39 39 39 38 34 31 29 28 28 30 31 35 44 49 55 63 65 68 78 82 80 76 74 76 77 75 76 78 80 82 82 82 82 81 82 81 80 79 77 76 77 76 76 76 76 76 79 79 77 76 75 74 72 69 67
20 20 18 18 19 19 19 19 20 18 17 18 17 21 27 26 26 29 33 36 38 39 40 40 37 32 31 33 35 38 40 40 40 40 38 36 36 38 40 41 41 41 41 40 39 38 35 31 31 30 28 30 30 31 37 44 53 59 59 63 75 82 81 77 74 75 76 75 76 76 77 79 80 80 80 81 82 80 77 79 78 76 77 77 76 76 77 77 79 80 78 75 74 73 70 69 67
23 22 19 18 19 20 21 22 22 22 20 19 21 25 27 26 27 30 33 36 39 40 40 40 39 36 34 34 34 36 37 38 39 41 42 41 39 39 41 42 42 43 43 40 38 37 35 34 34 32 30 32 33 32 35 40 48 53 54 61 71 78 79 76 74 74 75 76 76 74 74 74 76 77 78 79 81 79 77 78 77 77 78 78 79 79 78 79 79 80 78 75 74 72 69 68 67
23 23 21 20 20 20 22 23 25 26 24 23 24 27 27 28 31 32 32 36 39 40 40 39 39 38 37 35 35 35 34 34 36 38 41 43 43 42 42 44 45 46 46 43 41 40 40 41 41 42 41 41 40 39 39 40 44 48 52 59 68 73 74 74 73 73 74 76 76 74 72 71 72 75 77 78 79 79 78 77 76 77 79 80 81 81 80 80 80 79 78 76 73 69 66 67 66
21 21 20 20 20 21 22 24 27 28 25 23 25 28 30 32 37 36 34 37 40 40 40 39 40 41 40 38 36 35 34 34 33 33 37 41 43 43 45 47 49 53 58 59 58 56 55 54 54 55 56 53 49 46 45 45 47 49 51 55 62 70 73 74 75 76 77 77 77 77 74 71 71 73 76 77 77 77 77 74 73 75 79 80 81 82 82 81 81 80 78 76 72 67 64 64 65
20 19 19 19 20 21 23 24 26 27 25 24 27 28 28 33 39 39 38 40 40 39 39 39 42 42 42 42 40 39 38 36 35 34 37 42 44 44 46 47 47 51 58 63 66 69 70 66 62 64 64 61 55 52 50 49 51 54 54 54 59 66 70 74 77 79 79 79 79 79 76 73 72 74 76 77 76 75 75 72 72 74 77 79 80 82 83 82 82 81 78 74 70 65 62 62 64
20 20 20 20 21 22 25 26 26 27 27 27 31 29 26 33 41 40 39 42 41 39 39 39 41 42 41 42 42 42 41 40 39 38 39 42 43 43 44 44 45 46 49 53 57 66 72 70 67 66 64 60 57 54 52 51 52 54 56 57 60 63 67 72 75 77 78 78 79 79 77 76 75 76 77 77 77 76 75 72 71 72 75 77 78 81 83 82 80 79 77 71 66 62 60 63 65
19 21 22 23 22 23 27 27 28 31 27 26 31 29 25 33 44 45 43 44 43 41 41 41 41 41 40 41 41 41 41 40 40 40 40 41 41 43 45 48 51 52 55 58 57 60 68 70 66 61 57 55 55 56 54 51 50 52 54 57 60 63 66 71 73 74 76 78 80 79 78 78 78 79 79 76 76 75 74 73 71 71 72 74 76 78 81 81 79 78 74 66 61 59 61 66 67
17 21 23 25 26 28 30 30 29 31 29 28 31 30 27 35 47 50 48 48 45 44 45 44 43 43 42 42 42 41 41 40 41 41 41 41 42 44 48 52 56 58 61 63 60 59 64 67 63 57 56 55 54 56 56 53 52 52 52 54 57 59 63 69 72 73 75 78 80 79 78 79 78 80 80 76 74 72 72 73 72 71 71 72 74 77 79 79 77 76 72 64 60 59 60 64 65
16 19 22 26 31 34 37 37 32 31 34 34 35 33 28 34 48 54 54 53 50 49 50 48 47 46 44 43 43 43 43 42 43 43 43 43 44 47 49 52 57 59 62 63 61 60 61 65 65 61 60 59 55 56 56 55 55 55 53 52 55 58 61 66 71 72 74 77 80 78 78 81 80 81 80 76 75 75 73 74 74 74 72 71 72 75 78 77 73 72 71 68 66 63 61 63 62
17 20 23 28 36 37 38 39 34 36 40 37 38 36 30 37 51 58 59 56 53 52 53 52 51 49 47 46 46 46 46 46 46 46 46 47 48 50 52 53 55 57 61 62 61 61 62 66 68 64 62 62 59 58 57 57 57 57 56 54 55 60 62 65 69 71 72 74 78 77 76 80 81 80 79 75 76 78 77 76 75 74 74 73 72 75 78 75 71 70 70 70 72 68 62 62 63
20 24 26 30 36 35 35 40 40 41 40 36 37 36 39 52 60 61 62 59 56 55 53 53 54 53 51 49 48 49 49 49 49 48 47 47 48 50 51 53 54 56 60 61 60 61 62 66 69 67 65 65 64 61 60 60 58 57 58 57 58 61 64 66 67 70 71 72 76 80 79 81 80 78 80 79 78 79 80 80 78 76 77 77 76 77 79 75 70 70 71 71 72 69 62 60 62
23 26 26 28 35 34 35 42 44 41 37 36 36 37 49 64 65 63 65 62 59 57 54 54 54 52 49 47 47 47 48 48 48 47 48 48 49 50 51 54 56 58 61 60 59 60 60 63 66 66 66 66 65 63 62 62 61 59 61 62 62 64 66 67 67 68 70 70 74 80 85 87 85 81 80 80 80 81 80 81 81 81 82 83 82 82 82 78 73 72 74 73 69 65 62 59 60
25 26 25 25 30 32 34 39 39 36 36 37 38 42 54 65 66 65 65 61 59 58 55 54 52 50 49 49 48 49 50 50 50 51 52 52 51 53 54 57 59 61 64 63 61 60 59 59 62 65 68 69 66 64 64 63 63 63 65 67 66 65 67 70 70 69 69 68 70 76 82 85 87 88 84 79 79 79 79 81 81 81 84 86 85 83 83 81 76 73 76 75 69 63 60 60 60
27 26 26 25 26 29 33 36 36 35 39 46 50 55 60 65 68 67 64 62 61 59 57 54 52 52 54 54 54 53 54 54 55 58 58 56 55 56 58 60 63 64 64 65 63 62 61 61 64 68 71 72 71 69 68 67 64 63 67 70 69 67 67 69 70 71 72 71 70 74 78 79 82 86 85 81 78 77 79 83 82 80 83 85 84 84 85 85 81 77 75 75 71 64 59 59 60
29 27 27 28 27 29 31 33 36 37 42 52 60 66 67 67 68 68 66 67 64 61 59 56 55 57 59 58 55 54 56 57 60 62 60 58 57 60 62 63 64 64 64 65 66 66 67 66 68 70 72 74 74 73 72 71 68 66 69 72 72 70 68 65 65 71 75 72 70 72 73 75 77 78 81 83 81 80 84 88 86 85 84 82 81 82 84 87 86 82 79 75 70 66 60 58 60
30 28 29 29 28 29 30 33 38 41 47 57 64 67 68 66 68 69 67 65 62 60 59 56 56 58 60 59 56 56 59 60 62 61 60 61 62 63 65 64 63 65 67 69 70 72 73 73 72 72 73 75 74 72 71 73 74 75 76 78 79 74 70 64 62 70 74 70 71 73 69 68 72 73 77 82 81 80 85 90 90 88 84 80 80 82 82 85 85 82 82 79 71 65 62 60 60
30 32 32 31 31 32 31 32 36 38 48 63 68 68 66 65 69 71 68 65 62 60 60 56 56 57 57 56 55 57 60 60 61 62 62 64 66 66 65 64 65 66 68 71 74 76 77 76 74 74 75 75 72 68 66 68 73 75 76 82 85 80 74 68 62 67 71 69 72 77 71 66 69 73 75 78 78 78 81 88 91 89 85 80 80 83 85 86 82 79 83 81 71 65 63 62 60
31 35 34 34 38 37 33 34 35 37 50 65 69 68 66 65 68 70 69 68 64 61 61 59 57 57 56 55 56 59 60 61 62 63 64 65 66 67 66 65 67 69 70 73 75 78 80 78 77 76 75 73 70 67 66 67 71 74 74 80 87 87 83 75 66 67 72 71 74 78 74 68 70 74 74 72 74 77 79 84 89 89 88 83 81 83 85 85 81 79 84 80 70 66 64 62 59
32 33 34 35 38 37 34 35 34 36 50 64 68 67 64 63 66 68 68 67 63 60 61 60 59 59 58 58 59 60 61 62 63 63 63 65 66 68 67 66 67 69 72 75 75 76 77 75 74 75 73 72 71 71 71 70 72 74 74 79 87 92 90 82 72 70 73 74 77 79 75 71 73 75 73 69 71 76 79 82 85 86 86 84 83 83 84 85 81 80 83 77 66 65 64 60 59
38 39 38 38 38 37 39 40 37 37 45 56 61 64 64 63 64 65 66 65 64 61 59 59 60 59 60 61 61 62 62 63 64 64 64 66 68 69 68 68 68 69 72 73 73 72 71 69 68 68 69 69 69 70 70 70 71 71 72 77 84 88 88 83 76 71 72 74 77 78 76 76 77 77 74 70 69 72 77 81 81 81 83 83 85 87 85 86 83 82 84 75 65 67 65 60 60